Location: Neuvy Saint Sepulchre
(46.5953°N, 1.8122°E)
Time: 11:32:38
(UTC+02:00)

ISS - Pass Details

Date: 11 May 2021
Orbit: 417 x 422 km, 51.6° (Epoch: 15 May)

Event Time Altitude Azimuth Distance (km) Brightness Sun altitude
Exits shadow 03:37:17 17° 303° (WNW) 1,150 -1.5 -21.0°
Maximum altitude 03:39:22 33° 360° (N) 734 -2.0 -20.9°
Drops below altitude 10° 03:42:28 10° 66° (ENE) 1,506 -0.2 -20.6°
Sets 03:44:43 0° 76° (ENE) 2,371 0.7 -20.4°
